Orbital Elements at Epoch 2459000.5 (2020-May-31.0) TDB
Reference: JPL 15 (heliocentric ecliptic J2000)
Element | Value | Uncertainty (1-sigma) | Units |
e | .06437341824681897 | 6.4958e-08 | |
a | 3.020354128039267 | 4.5887e-08 | au |
q | 2.825923608501489 | 1.8281e-07 | au |
i | 9.978359171073121 | 1.0683e-05 | deg |
node | 316.2052860338447 | 4.9612e-05 | deg |
peri | 326.891104389186 | 0.00011043 | deg |
M | 116.1253629047659 | 9.835e-05 | deg |
tp | 2458382.042573484767 (2018-Sep-20.54257348) | 0.00052234 | TDB |
period | 1917.278602849871 5.25 | 4.3693e-05 1.196e-07 | d yr |
n | .1877661386638806 | 4.279e-09 | deg/d |
Q | 3.214784647577045 | 4.8841e-08 | au |
|
| | Orbit Determination Parameters
Additional Information
|